When you browse on this site, cookies collect data to enhance your experience and personalize the content and advertising you see.
Visit our Privacy Policy to learn more. By continuing to use the site, you agree to this use of cookies and data.

Meteo pe oră la Dziegielewo

Astăzi, 23 Septembrie, Miercuri

Timp Temperatura Precipitaţii Vânt Presiune Umiditate
00:00 +17°C° 0 mm 3 m/s 748 mmHg 62%
01:00 +17°C° 0 mm 3 m/s 748 mmHg 62%
02:00 +16°C° 0 mm 3 m/s 747 mmHg 63%
03:00 +16°C° 0 mm 3 m/s 747 mmHg 63%
04:00 +16°C° 0 mm 3 m/s 747 mmHg 64%
05:00 +16°C° 0 mm 3 m/s 747 mmHg 63%
06:00 +17°C° 0 mm 3 m/s 746 mmHg 62%
07:00 +17°C° 0 mm 3 m/s 746 mmHg 61%
08:00 +20°C° 0 mm 3 m/s 746 mmHg 55%
09:00 +22°C° 0 mm 4 m/s 746 mmHg 50%
10:00 +25°C° 0 mm 4 m/s 746 mmHg 44%
11:00 +26°C° 0 mm 4 m/s 746 mmHg 41%
12:00 +27°C° 0 mm 4 m/s 745 mmHg 39%
13:00 +28°C° 0 mm 4 m/s 745 mmHg 37%
14:00 +28°C° 0 mm 4 m/s 745 mmHg 39%
15:00 +27°C° 0 mm 3 m/s 745 mmHg 41%
16:00 +27°C° 0 mm 2 m/s 744 mmHg 43%
17:00 +25°C° 0 mm 2 m/s 744 mmHg 48%
18:00 +23°C° 0 mm 2 m/s 744 mmHg 53%
19:00 +20°C° 0 mm 2 m/s 744 mmHg 58%
20:00 +20°C° 0 mm 2 m/s 744 mmHg 60%
21:00 +19°C° 0 mm 2 m/s 744 mmHg 63%
22:00 +19°C° 0 mm 2 m/s 744 mmHg 65%
23:00 +19°C° 0 mm 2 m/s 744 mmHg 66%

Mâine, 24 Septembrie, Joi

Timp Temperatura Precipitaţii Vânt Presiune Umiditate
00:00 +19°C° 0 mm 2 m/s 744 mmHg 66%
01:00 +19°C° 0 mm 2 m/s 744 mmHg 66%
02:00 +18°C° 0 mm 2 m/s 744 mmHg 68%
03:00 +18°C° 0 mm 2 m/s 744 mmHg 69%
04:00 +17°C° 0 mm 3 m/s 744 mmHg 71%
05:00 +18°C° 0 mm 3 m/s 744 mmHg 70%
06:00 +18°C° 0 mm 3 m/s 744 mmHg 70%
07:00 +18°C° 0 mm 3 m/s 744 mmHg 70%
08:00 +20°C° 0 mm 3 m/s 744 mmHg 66%
09:00 +21°C° 0 mm 4 m/s 744 mmHg 61%
10:00 +23°C° 0 mm 4 m/s 744 mmHg 57%
11:00 +25°C° 0 mm 4 m/s 744 mmHg 55%
12:00 +26°C° 0 mm 4 m/s 744 mmHg 53%
13:00 +26°C° 0 mm 4 m/s 744 mmHg 51%
14:00 +26°C° 0.1 mm 3 m/s 744 mmHg 50%
15:00 +25°C° 0.1 mm 3 m/s 744 mmHg 50%
16:00 +25°C° 0.1 mm 2 m/s 744 mmHg 50%
17:00 +23°C° 0 mm 2 m/s 744 mmHg 54%
18:00 +21°C° 0 mm 2 m/s 744 mmHg 58%
19:00 +20°C° 0 mm 1 m/s 744 mmHg 62%
20:00 +20°C° 0 mm 1 m/s 744 mmHg 64%
21:00 +18°C° 0 mm 2 m/s 744 mmHg 65%
22:00 +18°C° 0 mm 2 m/s 744 mmHg 66%
23:00 +17°C° 0 mm 2 m/s 744 mmHg 68%

Poimâine, 25 Septembrie, Vineri

Timp Temperatura Precipitaţii Vânt Presiune Umiditate
00:00 +17°C° 0 mm 2 m/s 744 mmHg 70%
01:00 +17°C° 0 mm 2 m/s 744 mmHg 72%
02:00 +16°C° 0 mm 2 m/s 743 mmHg 74%
03:00 +16°C° 0 mm 3 m/s 743 mmHg 77%
04:00 +16°C° 0 mm 3 m/s 743 mmHg 79%
05:00 +16°C° 0 mm 3 m/s 742 mmHg 79%
06:00 +17°C° 0 mm 3 m/s 742 mmHg 79%
07:00 +17°C° 0 mm 4 m/s 741 mmHg 79%
08:00 +18°C° 0 mm 4 m/s 741 mmHg 73%
09:00 +20°C° 0 mm 5 m/s 740 mmHg 68%
10:00 +22°C° 0 mm 5 m/s 740 mmHg 62%
11:00 +23°C° 0 mm 6 m/s 739 mmHg 60%
12:00 +23°C° 0 mm 6 m/s 739 mmHg 57%
13:00 +24°C° 0 mm 7 m/s 738 mmHg 54%
14:00 +23°C° 0.6 mm 6 m/s 738 mmHg 59%
15:00 +22°C° 0.6 mm 5 m/s 737 mmHg 64%
16:00 +21°C° 0.6 mm 4 m/s 737 mmHg 69%
17:00 +20°C° 0.6 mm 4 m/s 737 mmHg 75%
18:00 +19°C° 0.6 mm 4 m/s 737 mmHg 81%
19:00 +17°C° 0.6 mm 4 m/s 737 mmHg 87%
20:00 +17°C° 0.2 mm 3 m/s 737 mmHg 88%
21:00 +17°C° 0.2 mm 3 m/s 737 mmHg 90%
22:00 +16°C° 0.2 mm 3 m/s 737 mmHg 91%
23:00 +16°C° 0.3 mm 3 m/s 738 mmHg 90%

26 Septembrie, Sâmbătă

Timp Temperatura Precipitaţii Vânt Presiune Umiditate
00:00 +16°C° 0.3 mm 3 m/s 738 mmHg 90%
01:00 +14°C° 0.3 mm 3 m/s 738 mmHg 89%
02:00 +14°C° 0.1 mm 3 m/s 738 mmHg 89%
03:00 +14°C° 0.1 mm 3 m/s 738 mmHg 90%
04:00 +14°C° 0.1 mm 3 m/s 738 mmHg 90%
05:00 +14°C° 0 mm 3 m/s 738 mmHg 90%
06:00 +14°C° 0 mm 3 m/s 738 mmHg 90%
07:00 +14°C° 0 mm 4 m/s 737 mmHg 90%
08:00 +15°C° 0.1 mm 4 m/s 737 mmHg 88%
09:00 +17°C° 0.1 mm 4 m/s 737 mmHg 86%
10:00 +17°C° 0.1 mm 5 m/s 737 mmHg 84%
11:00 +19°C° 0.2 mm 4 m/s 737 mmHg 81%
12:00 +19°C° 0.2 mm 4 m/s 737 mmHg 78%
13:00 +20°C° 0.2 mm 4 m/s 736 mmHg 75%
14:00 +20°C° 1 mm 3 m/s 736 mmHg 79%
15:00 +19°C° 1 mm 2 m/s 736 mmHg 83%
16:00 +20°C° 1 mm 1 m/s 736 mmHg 87%
17:00 +18°C° 0.8 mm 2 m/s 736 mmHg 89%
18:00 +18°C° 0.8 mm 2 m/s 736 mmHg 90%
19:00 +18°C° 0.8 mm 2 m/s 736 mmHg 92%
20:00 +18°C° 1 mm 2 m/s 736 mmHg 92%
21:00 +18°C° 1 mm 2 m/s 736 mmHg 93%
22:00 +18°C° 1 mm 2 m/s 736 mmHg 94%
23:00 +18°C° 0.1 mm 4 m/s 735 mmHg 87%

27 Septembrie, Duminică

Timp Temperatura Precipitaţii Vânt Presiune Umiditate
00:00 +17°C° 0.1 mm 5 m/s 735 mmHg 80%
01:00 +19°C° 0.1 mm 6 m/s 735 mmHg 74%
02:00 +19°C° 0 mm 6 m/s 735 mmHg 77%
03:00 +17°C° 0 mm 6 m/s 735 mmHg 81%
04:00 +17°C° 0 mm 7 m/s 735 mmHg 84%
05:00 +16°C° 0.1 mm 6 m/s 735 mmHg 86%
06:00 +17°C° 0.1 mm 4 m/s 735 mmHg 88%
07:00 +16°C° 0.1 mm 3 m/s 735 mmHg 89%
08:00 +16°C° 0.3 mm 3 m/s 735 mmHg 89%
09:00 +15°C° 0.3 mm 4 m/s 736 mmHg 89%
10:00 +15°C° 0.3 mm 4 m/s 736 mmHg 88%
11:00 +16°C° 0.5 mm 3 m/s 736 mmHg 89%
12:00 +16°C° 0.5 mm 3 m/s 736 mmHg 89%
13:00 +16°C° 0.5 mm 3 m/s 736 mmHg 89%
14:00 +16°C° 0.5 mm 3 m/s 736 mmHg 90%
15:00 +16°C° 0.5 mm 3 m/s 736 mmHg 90%
16:00 +16°C° 0.5 mm 3 m/s 737 mmHg 91%
17:00 +14°C° 0.6 mm 4 m/s 737 mmHg 91%
18:00 +14°C° 0.6 mm 4 m/s 737 mmHg 92%
19:00 +13°C° 0.6 mm 4 m/s 737 mmHg 93%
20:00 +14°C° 0.2 mm 4 m/s 737 mmHg 92%
21:00 +14°C° 0.2 mm 4 m/s 737 mmHg 91%
22:00 +14°C° 0.2 mm 4 m/s 736 mmHg 91%
23:00 +14°C° 0 mm 4 m/s 736 mmHg 91%

28 Septembrie, Luni

Timp Temperatura Precipitaţii Vânt Presiune Umiditate
00:00 +13°C° 0 mm 4 m/s 736 mmHg 92%
01:00 +13°C° 0 mm 4 m/s 736 mmHg 93%
02:00 +12°C° 0 mm 5 m/s 736 mmHg 91%
03:00 +10°C° 0 mm 5 m/s 736 mmHg 89%
04:00 +10°C° 0 mm 5 m/s 736 mmHg 86%
05:00 +10°C° 0 mm 5 m/s 737 mmHg 86%
06:00 +9°C° 0 mm 5 m/s 737 mmHg 85%
07:00 +9°C° 0 mm 5 m/s 737 mmHg 85%
08:00 +9°C° 0 mm 5 m/s 737 mmHg 84%
09:00 +10°C° 0 mm 5 m/s 738 mmHg 83%
10:00 +10°C° 0 mm 5 m/s 738 mmHg 82%
11:00 +11°C° 0.1 mm 4 m/s 739 mmHg 81%
12:00 +11°C° 0.1 mm 4 m/s 739 mmHg 80%
13:00 +11°C° 0.1 mm 4 m/s 739 mmHg 78%
14:00 +11°C° 0.1 mm 3 m/s 740 mmHg 79%
15:00 +11°C° 0.1 mm 3 m/s 740 mmHg 80%
16:00 +10°C° 0.1 mm 2 m/s 740 mmHg 81%
17:00 +10°C° 0.2 mm 3 m/s 741 mmHg 83%
18:00 +10°C° 0.2 mm 3 m/s 741 mmHg 85%
19:00 +10°C° 0.2 mm 3 m/s 741 mmHg 86%
20:00 +9°C° 0.3 mm 3 m/s 741 mmHg 88%
21:00 +9°C° 0.3 mm 3 m/s 742 mmHg 89%
22:00 +8°C° 0.3 mm 4 m/s 742 mmHg 90%
23:00 +8°C° 0.1 mm 4 m/s 742 mmHg 91%
Arată mai mult